Flag for Germany Weather past 2 weeks in Melle, Lower Saxony, Germany

Now
46 °F

Clear.


Feels Like: 46 °F
Forecast: 50 / 76 °F
Wind: 2 mph from West

Location: Muenster / Osnabrueck

Current Time: Jul 31, 2015 at 5:56:04 AM

Latest Report: Jul 31, 2015 at 5:20 AM


Visibility: 10 mi

Pressure: 30.09 "Hg

Humidity: 93%

Dew point: 45 °F

Location of MelleLocation

Historic Weather in Melle — Graph

°F

Melle temperature yesterday

Maximum temperature yesterday: 66 °F (at 2:50 PM)
Minimum temperature yesterday: 52 °F (at 5:20 AM)
Average temperature yesterday: 58 °F

Past Weeks' High & Low Weather Summary

 TemperatureHumidityPressure
High90 °F (Jul 17, 4:20 PM)100% (Jul 20, 4:50 AM)30.12 "Hg (Jul 20, 4:50 AM)
Low46 °F (Jul 31, 2:20 AM)27% (Jul 17, 5:20 PM)29.47 "Hg (Jul 25, 7:20 AM)
Average65 °F72%29.85 "Hg
* Reported Jul 16 4:20 AM — Jul 31 4:20 AM, Melle, Weather by CustomWeather, © 2015

Note: Actual official high and low records may vary slightly from our data, if they occured in-between our weather recording intervals... More about our weather records

Advertising

Melle weather history for previous 24 hours

 ConditionsComfort  
Time TempWeatherWind HumidityBarometerVisibility
4:20 AM
Fri, Jul 31
48 °FClear.3 mph87%30.09 "Hg10 mi
3:50 AM46 °FClear.5 mph93%30.09 "Hg10 mi
3:20 AM48 °FClear.5 mph94%30.09 "Hg10 mi
2:50 AM48 °FClear.5 mph87%30.09 "Hg10 mi
2:20 AM46 °FClear.5 mph93%30.09 "Hg10 mi
1:50 AM48 °FClear.5 mph87%30.09 "Hg10 mi
1:20 AM48 °FClear.5 mph87%30.07 "Hg10 mi
12:50 AM48 °FClear.5 mph87%30.07 "Hg10 mi
12:20 AM50 °FClear.6 mph82%30.07 "Hg10 mi
11:20 PM
Thu, Jul 30
52 °FClear.5 mph77%30.07 "Hg10 mi
10:50 PM54 °FClear.6 mph72%30.07 "Hg10 mi
10:20 PM55 °FSunny.8 mph72%30.07 "Hg10 mi
9:50 PM55 °FSunny.6 mph72%30.04 "Hg10 mi
9:20 PM57 °FPassing clouds.8 mph67%30.04 "HgN/A
8:50 PM59 °FPassing clouds.9 mph59%30.01 "HgN/A
8:20 PM61 °FPassing clouds.10 mph55%30.01 "HgN/A
7:50 PM63 °FPassing clouds.13 mph56%30.01 "HgN/A
7:20 PM63 °FPassing clouds.12 mph56%29.98 "HgN/A
6:50 PM63 °FScattered clouds.12 mph56%29.98 "HgN/A
6:20 PM64 °FScattered clouds.15 mph49%29.98 "HgN/A
5:50 PM66 °FScattered clouds.16 mph49%29.98 "HgN/A
5:20 PM66 °FScattered clouds.15 mph56%29.98 "HgN/A
4:50 PM64 °FScattered clouds.14 mph56%29.98 "HgN/A
4:20 PM64 °FPartly sunny.12 mph52%29.95 "HgN/A
3:50 PM64 °FScattered clouds.18 mph49%29.95 "HgN/A
3:20 PM64 °FScattered clouds.16 mph49%29.95 "HgN/A
2:50 PM66 °FScattered clouds.16 mph49%29.95 "HgN/A
2:20 PM64 °FScattered clouds.15 mph56%29.95 "HgN/A
1:50 PM63 °FScattered clouds.9 mph64%29.95 "HgN/A
1:20 PM61 °FScattered clouds.10 mph68%29.95 "HgN/A
12:50 PM64 °FScattered clouds.15 mph64%29.92 "HgN/A
12:20 PM61 °FScattered clouds.8 mph83%29.92 "HgN/A
11:50 AM55 °FSprinkles. Partly sunny.14 mph82%29.92 "HgN/A
11:20 AM63 °FScattered clouds.18 mph59%29.92 "HgN/A
10:20 AM61 °FScattered clouds.16 mph68%29.92 "HgN/A
9:50 AM59 °FScattered clouds.14 mph72%29.92 "HgN/A
9:20 AM59 °FScattered clouds.15 mph72%29.92 "HgN/A
8:50 AM57 °FPassing clouds.14 mph77%29.89 "HgN/A
8:20 AM57 °FPassing clouds.14 mph82%29.89 "HgN/A
7:50 AM55 °FSunny.14 mph82%29.89 "Hg10 mi
7:20 AM54 °FSunny.10 mph88%29.89 "Hg10 mi
6:50 AM54 °FPartly sunny.10 mph88%29.89 "HgN/A
6:20 AM54 °FPassing clouds.10 mph88%29.89 "HgN/A
5:50 AM54 °FPassing clouds.10 mph88%29.86 "HgN/A
5:20 AM52 °FPassing clouds.10 mph88%29.86 "HgN/A
Weather by CustomWeather, © 2015

See weather overviewHow to use our weather pages